Tampa Macdill AFB, FL

9:02 AM EST on December 09, 2019 (GMT -0500)
MacDill Air Force Base

Weather History for KMCF - November, 2019

Change the Weather History Date:

Friday, November 22, 2019

  Actual Average Record
Temperature  
Mean Temperature 67 °F -  
Max Temperature 79 °F 75 °F 86 °F (1998)
Min Temperature 55 °F 57 °F 41 °F (2000)
Cooling Degree Days 2    
Growing Degree Days 17 (Base 50)    
Moisture  
Dew Point 56 °F    
Average Humidity 75    
Maximum Humidity 91    
Minimum Humidity 45    
Precipitation  
Precipitation 0.00 in - - ()
Sea Level Pressure  
Sea Level Pressure 30.11 in    
Wind  
Wind Speed 5 mph (ENE)    
Max Wind Speed 8 mph    
Max Gust Speed -    
Visibility 10 miles    
Events      
Averages and records for this station are not official NWS values.
T = Trace of Precipitation, MM = Missing Value Source: NWS Daily Summary

Daily Weather History Graph

Daily Weather History Graph

Search for Another Location

Airport or City:

Astronomy

Nov. 22, 2019 Rise Set
Actual Time 6:56 AM EST 5:35 PM EST
Civil Twilight 6:31 AM EST 6:00 PM EST
Nautical Twilight 6:03 AM EST 6:29 PM EST
Astronomical Twilight 5:34 AM EST 6:57 PM EST
Moon 2:32 AM EST (11/22) 3:07 PM EST (11/22)
Length of Visible Light 11h 28m
Length of Day
10h 38m
Waning Crescent, 20% of the Moon is Illuminated
Nov 22
Waning Crescent
Nov 26
New
Dec 4
First Quarter
Dec 12
Full
Dec 18
Last Quarter

Hourly Weather History & Observations

Time (EST) Temp. Dew Point Humidity Pressure Visibility Wind Dir Wind Speed Gust Speed Precip Events Conditions
12:56 AM 58.3 °F 53.8 °F 85% 30.14 in 10.0 mi East 5.8 mph - N/A   Clear
1:56 AM 56.5 °F 52.9 °F 88% 30.12 in 10.0 mi East 6.9 mph - N/A   Clear
2:56 AM 57.2 °F 54.3 °F 90% 30.11 in 10.0 mi East 8.1 mph - N/A   Clear
3:56 AM 55.2 °F 52.3 °F 90% 30.12 in 10.0 mi East 6.9 mph - N/A   Clear
4:56 AM 58.3 °F 55.0 °F 89% 30.13 in 10.0 mi ENE 4.6 mph - N/A   Clear
5:56 AM 55.8 °F 52.9 °F 90% 30.12 in 10.0 mi Calm Calm - N/A   Clear
6:56 AM 55.4 °F 52.5 °F 90% 30.14 in 10.0 mi ENE 5.8 mph - N/A   Clear
7:56 AM 60.1 °F 57.4 °F 91% 30.13 in 10.0 mi East 3.5 mph - N/A   Clear
8:56 AM 67.1 °F 59.2 °F 76% 30.15 in 10.0 mi East 4.6 mph - N/A   Clear
9:56 AM 73.0 °F 58.8 °F 61% 30.16 in 10.0 mi ESE 5.8 mph - N/A   Clear
10:56 AM 74.8 °F 57.0 °F 54% 30.14 in 10.0 mi South 6.9 mph - N/A   Clear
11:56 AM 75.7 °F 55.8 °F 50% 30.13 in 10.0 mi Calm Calm - N/A   Clear
12:56 PM 79.5 °F 56.8 °F 46% 30.11 in 10.0 mi WNW 4.6 mph - N/A   Clear
2:56 PM 79.3 °F 56.1 °F 45% 30.08 in 10.0 mi West 3.5 mph - N/A   Clear
4:56 PM 74.8 °F 56.5 °F 53% 30.07 in 10.0 mi North 3.5 mph - N/A   Clear
5:56 PM 70.3 °F 57.2 °F 63% 30.07 in 10.0 mi North 3.5 mph - N/A   Clear
7:56 PM 62.8 °F 56.1 °F 79% 30.08 in 10.0 mi North 3.5 mph - N/A   Clear
10:56 PM 57.9 °F 54.7 °F 89% 30.08 in 10.0 mi Calm Calm - N/A   Clear
11:56 PM 60.8 °F 56.8 °F 87% 30.07 in 10.0 mi ENE 3.5 mph - N/A   Clear